FDX86 PANC-KOAK

Flight info

Callsign FDX86
Flight time 4h 9m
Altitude 39000
Route MDO B453 KATCH/N0481F410 B453 BOXER SPAMY WNDSR2
Aircraft MD11/H-SDE1E2E3FGHIJ2J3J4J5M1RWXY/LB1D1

Departure

Time 2026-05-05 01:17
Airport Ted Stevens Anchorage International Airport (PANC)

Arrival

Time 2026-05-05 05:26
Airport San Francisco Bay Oakland International Airport (KOAK)
Time Latitude Longitude Altitude Speed Heading
2026-05-05 00:30 61.18989 -149.99945 123 ft 0 kts 75°
2026-05-05 00:58 61.18984 -149.99982 130 ft 4 kts 75°
2026-05-05 00:58 61.18977 -150.00035 134 ft 3 kts 75°
2026-05-05 00:59 61.18972 -150.00068 111 ft 4 kts 107°
2026-05-05 00:59 61.18980 -150.00094 118 ft 4 kts 161°
2026-05-05 00:59 61.19003 -150.00108 116 ft 4 kts 165°
2026-05-05 00:59 61.19012 -150.00113 115 ft 0 kts 165°
2026-05-05 01:05 61.19001 -150.00107 125 ft 4 kts 165°
2026-05-05 01:05 61.18972 -150.00090 125 ft 4 kts 164°
2026-05-05 01:05 61.18939 -150.00070 130 ft 8 kts 164°
2026-05-05 01:05 61.18887 -150.00039 115 ft 8 kts 164°
2026-05-05 01:06 61.18835 -150.00009 117 ft 7 kts 165°
2026-05-05 01:06 61.18773 -149.99987 117 ft 9 kts 184°
2026-05-05 01:06 61.18737 -150.00030 123 ft 2 kts 232°
2026-05-05 01:06 61.18728 -150.00065 127 ft 5 kts 243°
2026-05-05 01:07 61.18711 -150.00152 129 ft 6 kts 249°
2026-05-05 01:07 61.18694 -150.00273 126 ft 11 kts 252°
2026-05-05 01:07 61.18640 -150.00345 131 ft 8 kts 185°
2026-05-05 01:07 61.18589 -150.00325 128 ft 7 kts 165°
2026-05-05 01:08 61.18523 -150.00284 127 ft 16 kts 163°
2026-05-05 01:08 61.18408 -150.00225 127 ft 17 kts 166°
2026-05-05 01:08 61.18300 -150.00168 126 ft 15 kts 165°
2026-05-05 01:08 61.18201 -150.00111 125 ft 14 kts 164°
2026-05-05 01:09 61.18111 -150.00056 125 ft 13 kts 163°
2026-05-05 01:09 61.18031 -150.00003 124 ft 11 kts 162°
2026-05-05 01:09 61.17959 -149.99954 122 ft 10 kts 165°
2026-05-05 01:09 61.17866 -149.99921 124 ft 19 kts 167°
2026-05-05 01:10 61.17751 -149.99854 121 ft 15 kts 162°
2026-05-05 01:10 61.17660 -149.99797 123 ft 15 kts 166°
2026-05-05 01:10 61.17559 -149.99744 125 ft 14 kts 166°
2026-05-05 01:10 61.17480 -149.99703 124 ft 10 kts 165°
2026-05-05 01:11 61.17424 -149.99672 124 ft 7 kts 165°
2026-05-05 01:11 61.17373 -149.99645 126 ft 13 kts 166°
2026-05-05 01:11 61.17261 -149.99585 126 ft 18 kts 165°
2026-05-05 01:11 61.17156 -149.99561 124 ft 11 kts 204°
2026-05-05 01:12 61.17128 -149.99659 134 ft 9 kts 259°
2026-05-05 01:12 61.17123 -149.99844 138 ft 16 kts 268°
2026-05-05 01:12 61.17124 -150.00078 142 ft 14 kts 270°
2026-05-05 01:12 61.17123 -150.00257 144 ft 13 kts 270°
2026-05-05 01:13 61.17124 -150.00484 144 ft 18 kts 271°
2026-05-05 01:13 61.17125 -150.00704 144 ft 11 kts 270°
2026-05-05 01:13 61.17118 -150.00768 144 ft 4 kts 240°
2026-05-05 01:13 61.17100 -150.00813 144 ft 1 kts 212°
2026-05-05 01:14 61.17087 -150.00820 146 ft 2 kts 190°
2026-05-05 01:14 61.17059 -150.00816 143 ft 6 kts 175°
2026-05-05 01:14 61.17001 -150.00774 143 ft 8 kts 148°
2026-05-05 01:14 61.16978 -150.00696 144 ft 8 kts 104°
2026-05-05 01:15 61.16978 -150.00628 144 ft 0 kts 88°
2026-05-05 01:16 61.16979 -150.00507 144 ft 42 kts 90°
2026-05-05 01:16 61.16978 -149.99220 133 ft 130 kts 89°
2026-05-05 01:16 61.16984 -149.96878 382 ft 179 kts 87°
2026-05-05 01:17 61.16965 -149.94249 1507 ft 176 kts 89°
2026-05-05 01:17 61.16933 -149.91797 2772 ft 171 kts 89°
2026-05-05 01:17 61.16968 -149.89386 2888 ft 163 kts 88°
2026-05-05 01:17 61.17079 -149.87077 2562 ft 165 kts 81°
2026-05-05 01:18 61.17268 -149.84783 2316 ft 162 kts 81°
2026-05-05 01:18 61.17468 -149.82140 2753 ft 187 kts 78°
2026-05-05 01:18 61.17817 -149.79683 3152 ft 192 kts 67°
2026-05-05 01:18 61.18734 -149.77322 3509 ft 230 kts 42°
2026-05-05 01:19 61.20205 -149.75775 4311 ft 244 kts 19°
2026-05-05 01:19 61.21952 -149.75514 4998 ft 268 kts 359°
2026-05-05 01:19 61.23883 -149.76346 5410 ft 301 kts 347°
2026-05-05 01:19 61.25900 -149.77682 6522 ft 303 kts 344°
2026-05-05 01:20 61.27894 -149.79151 7667 ft 310 kts 342°
2026-05-05 01:20 61.29948 -149.80642 8779 ft 315 kts 341°
2026-05-05 01:20 61.32049 -149.82116 9833 ft 323 kts 341°
2026-05-05 01:20 61.34213 -149.83596 10350 ft 349 kts 341°
2026-05-05 01:21 61.36695 -149.84778 10483 ft 384 kts 357°
2026-05-05 01:21 61.39381 -149.84121 11184 ft 392 kts 21°
2026-05-05 01:21 61.41812 -149.81631 12217 ft 389 kts 41°
2026-05-05 01:21 61.43718 -149.77704 13184 ft 384 kts 60°
2026-05-05 01:22 61.44903 -149.72795 14090 ft 377 kts 79°
2026-05-05 01:22 61.45254 -149.67468 14958 ft 367 kts 98°
2026-05-05 01:22 61.44773 -149.62387 15826 ft 358 kts 116°
2026-05-05 01:22 61.43527 -149.57968 16666 ft 352 kts 135°
2026-05-05 01:23 61.41670 -149.54701 17480 ft 351 kts 150°
2026-05-05 01:23 61.39496 -149.52337 18228 ft 354 kts 156°
2026-05-05 01:23 61.37233 -149.50216 18923 ft 357 kts 157°
2026-05-05 01:23 61.34950 -149.48143 19669 ft 358 kts 157°
2026-05-05 01:24 61.32657 -149.46074 20429 ft 360 kts 157°
2026-05-05 01:24 61.30354 -149.43999 21167 ft 362 kts 157°
2026-05-05 01:24 61.28033 -149.41911 21940 ft 364 kts 157°
2026-05-05 01:24 61.25706 -149.39820 22717 ft 366 kts 157°
2026-05-05 01:25 61.23354 -149.37706 23443 ft 369 kts 157°
2026-05-05 01:25 61.21025 -149.35615 24052 ft 371 kts 157°
2026-05-05 01:25 61.18639 -149.33475 24601 ft 376 kts 157°
2026-05-05 01:25 61.16227 -149.31313 25281 ft 380 kts 158°
2026-05-05 01:26 61.13782 -149.29124 25854 ft 385 kts 158°
2026-05-05 01:26 61.11311 -149.26914 26482 ft 389 kts 158°
2026-05-05 01:26 61.08813 -149.24681 27112 ft 393 kts 158°
2026-05-05 01:26 61.06287 -149.22425 27761 ft 397 kts 158°
2026-05-05 01:27 61.03761 -149.20064 28373 ft 401 kts 156°
2026-05-05 01:27 61.01346 -149.17308 28914 ft 407 kts 151°
2026-05-05 01:27 60.98993 -149.13992 29530 ft 412 kts 147°
2026-05-05 01:27 60.96735 -149.10307 30079 ft 418 kts 144°
2026-05-05 01:28 60.94524 -149.06369 30455 ft 423 kts 142°
2026-05-05 01:28 60.92347 -149.02302 30903 ft 425 kts 142°
2026-05-05 01:28 60.90168 -148.98149 31321 ft 426 kts 142°
2026-05-05 01:28 60.88006 -148.94005 31861 ft 425 kts 143°
2026-05-05 01:29 60.85878 -148.89939 32384 ft 424 kts 143°
2026-05-05 01:29 60.83747 -148.85884 32929 ft 423 kts 143°
2026-05-05 01:29 60.81584 -148.81785 33398 ft 423 kts 143°
2026-05-05 01:29 60.79426 -148.77708 33892 ft 422 kts 143°
2026-05-05 01:30 60.77268 -148.73646 34270 ft 422 kts 143°
2026-05-05 01:30 60.75096 -148.69568 34565 ft 424 kts 143°
2026-05-05 01:30 60.72923 -148.65531 34853 ft 425 kts 144°
2026-05-05 01:30 60.70728 -148.61492 35207 ft 425 kts 144°
2026-05-05 01:31 60.68531 -148.57449 35477 ft 427 kts 143°
2026-05-05 01:31 60.66350 -148.53423 35688 ft 428 kts 143°
2026-05-05 01:31 60.64145 -148.49339 35999 ft 429 kts 144°
2026-05-05 01:31 60.61931 -148.45237 36261 ft 431 kts 143°
2026-05-05 01:32 60.59709 -148.41121 36545 ft 433 kts 143°
2026-05-05 01:32 60.57479 -148.36996 36763 ft 436 kts 143°
2026-05-05 01:32 60.55225 -148.32835 37010 ft 437 kts 143°
2026-05-05 01:32 60.52973 -148.28683 37274 ft 439 kts 143°
2026-05-05 01:33 60.50708 -148.24514 37523 ft 440 kts 143°
2026-05-05 01:33 60.48437 -148.20344 37800 ft 441 kts 143°
2026-05-05 01:33 60.46156 -148.16165 37998 ft 443 kts 143°
2026-05-05 01:33 60.43898 -148.12038 38233 ft 444 kts 143°
2026-05-05 01:34 60.41602 -148.07847 38431 ft 444 kts 143°
2026-05-05 01:34 60.39312 -148.03673 38783 ft 442 kts 143°
2026-05-05 01:34 60.37022 -147.99508 38885 ft 442 kts 143°
2026-05-05 01:34 60.34734 -147.95357 38923 ft 444 kts 143°
2026-05-05 01:35 60.30116 -147.87009 38934 ft 446 kts 143°
2026-05-05 01:35 60.25521 -147.78732 38938 ft 447 kts 143°
2026-05-05 01:36 60.20881 -147.70406 38935 ft 446 kts 143°
2026-05-05 01:36 60.16249 -147.62125 38920 ft 445 kts 143°
2026-05-05 01:37 60.11623 -147.53911 38929 ft 444 kts 144°
2026-05-05 01:37 60.07001 -147.45840 38918 ft 443 kts 144°
2026-05-05 01:38 60.02360 -147.37708 38915 ft 444 kts 144°
2026-05-05 01:38 59.97722 -147.29561 38907 ft 444 kts 143°
2026-05-05 01:39 59.93087 -147.21437 38912 ft 444 kts 144°
2026-05-05 01:39 59.88472 -147.13374 38907 ft 440 kts 144°
2026-05-05 01:40 59.83899 -147.05422 38900 ft 439 kts 144°
2026-05-05 01:40 59.79288 -146.97437 38889 ft 439 kts 144°
2026-05-05 01:41 59.74678 -146.89480 38888 ft 439 kts 144°
2026-05-05 01:41 59.70060 -146.81540 38889 ft 439 kts 144°
2026-05-05 01:42 59.65471 -146.73680 38892 ft 439 kts 144°
2026-05-05 01:42 59.60847 -146.65790 38902 ft 439 kts 144°
2026-05-05 01:43 59.56223 -146.57930 38908 ft 440 kts 144°
2026-05-05 01:43 59.51617 -146.50130 38912 ft 439 kts 144°
2026-05-05 01:44 59.46960 -146.42342 38916 ft 439 kts 145°
2026-05-05 01:44 59.42293 -146.34594 38903 ft 440 kts 146°
2026-05-05 01:45 59.37711 -146.26597 38920 ft 445 kts 140°
2026-05-05 01:45 59.33681 -146.17402 38887 ft 449 kts 135°
2026-05-05 01:46 59.29801 -146.07856 38887 ft 449 kts 135°
2026-05-05 01:46 59.25880 -145.98338 38887 ft 449 kts 136°
2026-05-05 01:47 59.21927 -145.88897 38880 ft 449 kts 136°
2026-05-05 01:47 59.17950 -145.79479 38895 ft 450 kts 136°
2026-05-05 01:48 59.13993 -145.70142 38884 ft 450 kts 136°
2026-05-05 01:48 59.10002 -145.60761 38884 ft 450 kts 136°
2026-05-05 01:49 59.06009 -145.51412 38886 ft 450 kts 136°
2026-05-05 01:49 59.02032 -145.42138 38887 ft 449 kts 136°
2026-05-05 01:50 58.98025 -145.32832 38893 ft 450 kts 136°
2026-05-05 01:50 58.94027 -145.23584 38892 ft 450 kts 137°
2026-05-05 01:51 58.90004 -145.14315 38895 ft 449 kts 137°
2026-05-05 01:51 58.86015 -145.05161 38895 ft 449 kts 137°
2026-05-05 01:52 58.81953 -144.96008 38889 ft 449 kts 138°
2026-05-05 01:52 58.77886 -144.86855 38899 ft 449 kts 137°
2026-05-05 01:53 58.73831 -144.77686 38911 ft 450 kts 137°
2026-05-05 01:53 58.69802 -144.68585 38897 ft 450 kts 137°
2026-05-05 01:54 58.65755 -144.59475 38904 ft 449 kts 137°
2026-05-05 01:54 58.61695 -144.50373 38896 ft 450 kts 138°
2026-05-05 01:55 58.57621 -144.41277 38907 ft 450 kts 138°
2026-05-05 01:55 58.53540 -144.32201 38907 ft 450 kts 138°
2026-05-05 01:56 58.49482 -144.23211 38915 ft 450 kts 138°
2026-05-05 01:56 58.45389 -144.14180 38914 ft 449 kts 138°
2026-05-05 01:57 58.41290 -144.05169 38907 ft 450 kts 139°
2026-05-05 01:57 58.37181 -143.96173 38916 ft 450 kts 139°
2026-05-05 01:58 58.33103 -143.87278 38925 ft 450 kts 139°
2026-05-05 01:58 58.28967 -143.78367 38924 ft 449 kts 140°
2026-05-05 01:59 58.24817 -143.69510 38922 ft 449 kts 139°
2026-05-05 01:59 58.20679 -143.60631 38917 ft 449 kts 139°
2026-05-05 02:00 58.16543 -143.51752 38927 ft 449 kts 140°
2026-05-05 02:00 58.12440 -143.42968 38931 ft 448 kts 140°
2026-05-05 02:01 58.08303 -143.34148 38932 ft 448 kts 140°
2026-05-05 02:01 58.04158 -143.25345 38934 ft 448 kts 140°
2026-05-05 02:02 58.00017 -143.16582 38939 ft 447 kts 140°
2026-05-05 02:02 57.95934 -143.07976 38936 ft 446 kts 140°
2026-05-05 02:03 57.91819 -142.99337 38942 ft 446 kts 140°
2026-05-05 02:03 57.87667 -142.90650 38949 ft 446 kts 140°
2026-05-05 02:04 57.83514 -142.81996 38909 ft 446 kts 140°
2026-05-05 02:04 57.79371 -142.73385 38951 ft 443 kts 141°
2026-05-05 02:05 57.75257 -142.64896 38948 ft 442 kts 141°
2026-05-05 02:05 57.71084 -142.56429 38950 ft 442 kts 141°
2026-05-05 02:06 57.66925 -142.47957 38955 ft 443 kts 141°
2026-05-05 02:06 57.62772 -142.39472 38922 ft 442 kts 142°
2026-05-05 02:07 57.58633 -142.31029 38955 ft 441 kts 142°
2026-05-05 02:07 57.54520 -142.22674 38964 ft 440 kts 142°
2026-05-05 02:08 57.50376 -142.14287 38959 ft 440 kts 142°
2026-05-05 02:08 57.46226 -142.05919 38969 ft 440 kts 142°
2026-05-05 02:09 57.42072 -141.97571 38935 ft 440 kts 143°
2026-05-05 02:09 57.37947 -141.89310 38972 ft 439 kts 143°
2026-05-05 02:10 57.33791 -141.81021 38970 ft 439 kts 143°
2026-05-05 02:10 57.29628 -141.72745 38970 ft 439 kts 143°
2026-05-05 02:11 57.25460 -141.64489 38970 ft 439 kts 143°
2026-05-05 02:11 57.21316 -141.56309 38947 ft 439 kts 143°
2026-05-05 02:12 57.15023 -141.44075 38977 ft 438 kts 144°
2026-05-05 02:13 57.10826 -141.35935 38979 ft 438 kts 143°
2026-05-05 02:13 57.06643 -141.27797 38979 ft 438 kts 143°
2026-05-05 02:14 57.02483 -141.19714 38982 ft 438 kts 143°
2026-05-05 02:14 56.98288 -141.11591 38983 ft 438 kts 144°
2026-05-05 02:15 56.94088 -141.03488 38986 ft 438 kts 144°
2026-05-05 02:15 56.89887 -140.95413 38990 ft 438 kts 144°
2026-05-05 02:16 56.85705 -140.87401 38988 ft 438 kts 144°
2026-05-05 02:16 56.81492 -140.79359 38952 ft 438 kts 144°
2026-05-05 02:17 56.77287 -140.71357 38994 ft 437 kts 144°
2026-05-05 02:17 56.73184 -140.63578 38990 ft 436 kts 144°
2026-05-05 02:18 56.68972 -140.55621 38995 ft 436 kts 144°
2026-05-05 02:18 56.64784 -140.47737 39004 ft 436 kts 144°
2026-05-05 02:19 56.60559 -140.39849 38968 ft 435 kts 145°
2026-05-05 02:19 56.56308 -140.32010 39001 ft 436 kts 145°
2026-05-05 02:20 56.52060 -140.24138 39001 ft 436 kts 144°
2026-05-05 02:20 56.47852 -140.16329 39011 ft 437 kts 144°
2026-05-05 02:21 56.43609 -140.08473 39011 ft 436 kts 144°
2026-05-05 02:21 56.39362 -140.00637 38989 ft 437 kts 145°
2026-05-05 02:22 56.35093 -139.92794 39012 ft 438 kts 145°
2026-05-05 02:22 56.30848 -139.85014 39011 ft 438 kts 145°
2026-05-05 02:23 56.26568 -139.77197 39015 ft 438 kts 145°
2026-05-05 02:23 56.22281 -139.69394 39020 ft 438 kts 145°
2026-05-05 02:24 56.17991 -139.61616 39003 ft 439 kts 145°
2026-05-05 02:24 56.13764 -139.53979 39022 ft 441 kts 145°
2026-05-05 02:25 56.09441 -139.46188 39024 ft 441 kts 145°
2026-05-05 02:25 56.05115 -139.38420 39026 ft 440 kts 145°
2026-05-05 02:26 56.00767 -139.30713 39026 ft 440 kts 146°
2026-05-05 02:26 55.96433 -139.23074 39021 ft 443 kts 145°
2026-05-05 02:27 55.92057 -139.15326 39025 ft 444 kts 145°
2026-05-05 02:27 55.87679 -139.07568 39028 ft 444 kts 145°
2026-05-05 02:28 55.83300 -138.99834 39030 ft 444 kts 145°
2026-05-05 02:28 55.78923 -138.92130 38990 ft 443 kts 145°
2026-05-05 02:29 55.74543 -138.84458 39027 ft 447 kts 145°
2026-05-05 02:29 55.70110 -138.76709 39036 ft 448 kts 145°
2026-05-05 02:30 55.65664 -138.68960 39040 ft 448 kts 145°
2026-05-05 02:30 55.61252 -138.61297 39044 ft 446 kts 145°
2026-05-05 02:31 55.56828 -138.53638 39028 ft 446 kts 145°
2026-05-05 02:31 55.52372 -138.45965 39039 ft 448 kts 145°
2026-05-05 02:32 55.47910 -138.38294 39042 ft 448 kts 145°
2026-05-05 02:32 55.43466 -138.30703 39044 ft 447 kts 145°
2026-05-05 02:33 55.38970 -138.23125 39043 ft 447 kts 145°
2026-05-05 02:33 55.34472 -138.15523 39037 ft 450 kts 145°
2026-05-05 02:34 55.29965 -138.07890 39044 ft 451 kts 145°
2026-05-05 02:34 55.25480 -138.00304 39044 ft 451 kts 145°
2026-05-05 02:35 55.20963 -137.92691 39044 ft 450 kts 145°
2026-05-05 02:35 55.16441 -137.85098 39010 ft 450 kts 145°
2026-05-05 02:36 55.11907 -137.77512 39046 ft 452 kts 145°
2026-05-05 02:36 55.07366 -137.69937 39048 ft 452 kts 145°
2026-05-05 02:37 55.02847 -137.62424 39047 ft 452 kts 145°
2026-05-05 02:37 54.98293 -137.54878 39048 ft 451 kts 145°
2026-05-05 02:38 54.93739 -137.47357 39048 ft 451 kts 145°
2026-05-05 02:38 54.89179 -137.39850 39047 ft 451 kts 145°
2026-05-05 02:39 54.84646 -137.32417 39048 ft 451 kts 145°
2026-05-05 02:39 54.80058 -137.25003 39047 ft 451 kts 146°
2026-05-05 02:40 54.75468 -137.17581 39022 ft 451 kts 146°
2026-05-05 02:40 54.70887 -137.10151 39044 ft 451 kts 145°
2026-05-05 02:41 54.66334 -137.02778 39047 ft 451 kts 145°
2026-05-05 02:41 54.61747 -136.95371 39046 ft 451 kts 146°
2026-05-05 02:42 54.57155 -136.87983 39043 ft 451 kts 146°
2026-05-05 02:42 54.52559 -136.80613 39039 ft 453 kts 146°
2026-05-05 02:43 54.47975 -136.73286 39045 ft 453 kts 146°
2026-05-05 02:43 54.43360 -136.65931 39061 ft 453 kts 146°
2026-05-05 02:44 54.38753 -136.58609 39049 ft 451 kts 146°
2026-05-05 02:44 54.34927 -136.52550 39008 ft 450 kts 146°
2026-05-05 02:45 54.29562 -136.44086 39042 ft 452 kts 146°
2026-05-05 02:45 54.24931 -136.36800 39039 ft 452 kts 146°
2026-05-05 02:46 54.20288 -136.29581 39039 ft 451 kts 146°
2026-05-05 02:46 54.16424 -136.23600 39042 ft 451 kts 146°
2026-05-05 02:47 54.11025 -136.15217 39037 ft 453 kts 146°
2026-05-05 02:47 54.06346 -136.08059 39039 ft 450 kts 149°
2026-05-05 02:48 54.02231 -136.02740 39030 ft 445 kts 152°
2026-05-05 02:48 53.97164 -135.96707 39038 ft 444 kts 153°
2026-05-05 02:49 53.92108 -135.90708 39009 ft 445 kts 152°
2026-05-05 02:49 53.87025 -135.84633 39033 ft 448 kts 152°
2026-05-05 02:50 53.81968 -135.78577 39029 ft 448 kts 152°
2026-05-05 02:50 53.76876 -135.72493 39029 ft 448 kts 152°
2026-05-05 02:51 53.71807 -135.66457 39024 ft 448 kts 152°
2026-05-05 02:51 53.66684 -135.60382 39071 ft 453 kts 152°
2026-05-05 02:51 53.64136 -135.57367 39257 ft 454 kts 152°
2026-05-05 02:52 53.61552 -135.54311 39458 ft 454 kts 152°
2026-05-05 02:52 53.58967 -135.51257 39661 ft 454 kts 152°
2026-05-05 02:52 53.56382 -135.48209 39858 ft 454 kts 152°
2026-05-05 02:52 53.53795 -135.45164 40057 ft 454 kts 152°
2026-05-05 02:53 53.51207 -135.42122 40258 ft 454 kts 152°
2026-05-05 02:53 53.48618 -135.39084 40450 ft 454 kts 152°
2026-05-05 02:53 53.46026 -135.36048 40566 ft 455 kts 152°
2026-05-05 02:53 53.43459 -135.33046 40703 ft 456 kts 152°
2026-05-05 02:54 53.40856 -135.30006 40917 ft 455 kts 152°
2026-05-05 02:54 53.35636 -135.23958 41024 ft 456 kts 152°
2026-05-05 02:55 53.30407 -135.17938 41025 ft 456 kts 152°
2026-05-05 02:55 53.25186 -135.11910 40992 ft 456 kts 152°
2026-05-05 02:56 53.19982 -135.05905 41018 ft 459 kts 151°
2026-05-05 02:56 53.14724 -134.99850 41017 ft 459 kts 151°
2026-05-05 02:57 53.09461 -134.93808 41012 ft 459 kts 152°
2026-05-05 02:57 53.04199 -134.87786 41011 ft 459 kts 152°
2026-05-05 02:58 52.98953 -134.81822 41006 ft 462 kts 152°
2026-05-05 02:58 52.93640 -134.75827 41009 ft 462 kts 152°
2026-05-05 02:59 52.88325 -134.69828 41012 ft 462 kts 151°
2026-05-05 02:59 52.83008 -134.63835 41005 ft 462 kts 152°
2026-05-05 03:00 52.77725 -134.57896 41008 ft 462 kts 152°
2026-05-05 03:00 52.72420 -134.51948 41010 ft 460 kts 152°
2026-05-05 03:01 52.67128 -134.46036 41008 ft 459 kts 152°
2026-05-05 03:01 52.61842 -134.40149 41005 ft 459 kts 152°
2026-05-05 03:02 52.56581 -134.34307 40999 ft 460 kts 152°
2026-05-05 03:02 52.51263 -134.28420 41001 ft 461 kts 152°
2026-05-05 03:03 52.45939 -134.22541 40994 ft 461 kts 152°
2026-05-05 03:03 52.40612 -134.16676 40997 ft 461 kts 152°
2026-05-05 03:04 52.35312 -134.10860 40988 ft 462 kts 151°
2026-05-05 03:04 52.29953 -134.05024 40998 ft 463 kts 152°
2026-05-05 03:05 52.24572 -133.99206 40990 ft 464 kts 152°
2026-05-05 03:05 52.19202 -133.93383 40991 ft 464 kts 152°
2026-05-05 03:06 52.13865 -133.87596 40983 ft 464 kts 151°
2026-05-05 03:06 52.08470 -133.81762 40993 ft 466 kts 151°
2026-05-05 03:07 52.03065 -133.75933 40994 ft 467 kts 151°
2026-05-05 03:07 51.97649 -133.70126 40994 ft 465 kts 152°
2026-05-05 03:08 51.92297 -133.64405 40973 ft 464 kts 151°
2026-05-05 03:08 51.86892 -133.58635 40989 ft 466 kts 151°
2026-05-05 03:09 51.81481 -133.52867 40989 ft 466 kts 151°
2026-05-05 03:09 51.76069 -133.47114 40990 ft 466 kts 151°
2026-05-05 03:10 51.70685 -133.41408 40974 ft 466 kts 151°
2026-05-05 03:10 51.65260 -133.35675 40987 ft 467 kts 151°
2026-05-05 03:11 51.59819 -133.29942 40993 ft 467 kts 151°
2026-05-05 03:11 51.54380 -133.24227 40990 ft 467 kts 151°
2026-05-05 03:12 51.48972 -133.18561 40978 ft 467 kts 151°
2026-05-05 03:12 51.43510 -133.12858 40987 ft 469 kts 151°
2026-05-05 03:13 51.38040 -133.07160 40986 ft 469 kts 151°
2026-05-05 03:13 51.32566 -133.01475 40988 ft 469 kts 151°
2026-05-05 03:14 51.27114 -132.95874 40976 ft 469 kts 151°
2026-05-05 03:14 51.21615 -132.90235 40987 ft 469 kts 151°
2026-05-05 03:15 51.16135 -132.84602 40988 ft 468 kts 151°
2026-05-05 03:15 51.10662 -132.78983 40988 ft 468 kts 151°
2026-05-05 03:16 51.05220 -132.73412 40980 ft 468 kts 151°
2026-05-05 03:16 50.99724 -132.67810 40988 ft 470 kts 151°
2026-05-05 03:17 50.94209 -132.62229 40991 ft 470 kts 151°
2026-05-05 03:17 50.88692 -132.56652 40990 ft 470 kts 151°
2026-05-05 03:18 50.83232 -132.51140 40976 ft 470 kts 150°
2026-05-05 03:18 50.77722 -132.45592 40987 ft 472 kts 150°
2026-05-05 03:19 50.69407 -132.37247 40992 ft 472 kts 150°
2026-05-05 03:19 50.63859 -132.31700 40987 ft 472 kts 150°
2026-05-05 03:20 50.58353 -132.26210 40990 ft 472 kts 150°
2026-05-05 03:20 50.52800 -132.20689 40989 ft 472 kts 150°
2026-05-05 03:21 50.47258 -132.15194 40986 ft 470 kts 151°
2026-05-05 03:21 50.41734 -132.09732 40979 ft 469 kts 150°
2026-05-05 03:22 50.36237 -132.04315 40989 ft 471 kts 150°
2026-05-05 03:22 50.30688 -131.98864 40989 ft 471 kts 150°
2026-05-05 03:23 50.25156 -131.93487 40990 ft 471 kts 151°
2026-05-05 03:23 50.19584 -131.88111 40983 ft 471 kts 151°
2026-05-05 03:24 50.13963 -131.82978 40988 ft 472 kts 152°
2026-05-05 03:24 50.08271 -131.77879 40992 ft 472 kts 152°
2026-05-05 03:25 50.02579 -131.72781 40991 ft 472 kts 152°
2026-05-05 03:25 49.96879 -131.67714 40991 ft 473 kts 152°
2026-05-05 03:26 49.91190 -131.62696 40989 ft 474 kts 152°
2026-05-05 03:26 49.85453 -131.57643 40988 ft 474 kts 152°
2026-05-05 03:27 49.79720 -131.52604 40985 ft 472 kts 152°
2026-05-05 03:27 49.74009 -131.47597 40987 ft 472 kts 152°
2026-05-05 03:28 49.68348 -131.42647 40985 ft 473 kts 152°
2026-05-05 03:28 49.62623 -131.37655 40986 ft 473 kts 152°
2026-05-05 03:29 49.56895 -131.32674 40985 ft 473 kts 152°
2026-05-05 03:29 49.51158 -131.27699 40988 ft 474 kts 152°
2026-05-05 03:30 49.45450 -131.22762 40982 ft 474 kts 152°
2026-05-05 03:30 49.39701 -131.17804 40984 ft 474 kts 152°
2026-05-05 03:31 49.33944 -131.12851 40981 ft 474 kts 152°
2026-05-05 03:31 49.28175 -131.07909 40980 ft 476 kts 152°
2026-05-05 03:32 49.22380 -131.02991 40978 ft 476 kts 152°
2026-05-05 03:32 49.16631 -130.98108 40974 ft 476 kts 152°
2026-05-05 03:33 49.10868 -130.93208 40973 ft 474 kts 152°
2026-05-05 03:33 49.05102 -130.88314 40973 ft 474 kts 152°
2026-05-05 03:34 48.99407 -130.83493 40974 ft 474 kts 152°
2026-05-05 03:34 48.93642 -130.78633 40971 ft 474 kts 152°
2026-05-05 03:35 48.87868 -130.73792 40972 ft 475 kts 151°
2026-05-05 03:35 48.82082 -130.68941 40970 ft 475 kts 151°
2026-05-05 03:36 48.76297 -130.64098 40973 ft 475 kts 151°
2026-05-05 03:36 48.70549 -130.59299 40970 ft 475 kts 151°
2026-05-05 03:37 48.64749 -130.54469 40971 ft 476 kts 151°
2026-05-05 03:37 48.58940 -130.49643 40972 ft 476 kts 151°
2026-05-05 03:38 48.53132 -130.44832 40968 ft 477 kts 151°
2026-05-05 03:38 48.47371 -130.40072 40971 ft 474 kts 151°
2026-05-05 03:39 48.41591 -130.35311 40969 ft 474 kts 151°
2026-05-05 03:39 48.35808 -130.30558 40964 ft 473 kts 151°
2026-05-05 03:40 48.30024 -130.25817 40966 ft 473 kts 151°
2026-05-05 03:40 48.24235 -130.21085 40969 ft 474 kts 151°
2026-05-05 03:41 48.18464 -130.16413 40965 ft 475 kts 151°
2026-05-05 03:41 48.12655 -130.11716 40966 ft 475 kts 151°
2026-05-05 03:42 48.06841 -130.07008 40963 ft 475 kts 150°
2026-05-05 03:42 48.01029 -130.02306 40963 ft 476 kts 150°
2026-05-05 03:43 47.95256 -129.97647 40966 ft 476 kts 150°
2026-05-05 03:43 47.89429 -129.92958 40963 ft 476 kts 151°
2026-05-05 03:44 47.83617 -129.88293 40966 ft 474 kts 150°
2026-05-05 03:44 47.77813 -129.83647 40963 ft 474 kts 150°
2026-05-05 03:45 47.72048 -129.79042 40963 ft 474 kts 150°
2026-05-05 03:45 47.66234 -129.74423 40964 ft 474 kts 150°
2026-05-05 03:46 47.60414 -129.69805 40961 ft 474 kts 150°
2026-05-05 03:46 47.54595 -129.65183 40958 ft 474 kts 150°
2026-05-05 03:47 47.48815 -129.60597 40963 ft 474 kts 150°
2026-05-05 03:47 47.42995 -129.55992 40963 ft 475 kts 150°
2026-05-05 03:48 47.37164 -129.51390 40960 ft 475 kts 150°
2026-05-05 03:48 47.31334 -129.46801 40960 ft 475 kts 150°
2026-05-05 03:49 47.25503 -129.42222 40961 ft 475 kts 150°
2026-05-05 03:49 47.19719 -129.37693 40958 ft 474 kts 150°
2026-05-05 03:50 47.13897 -129.33144 40962 ft 474 kts 150°
2026-05-05 03:50 47.08071 -129.28603 40960 ft 474 kts 150°
2026-05-05 03:51 47.02243 -129.24073 40965 ft 474 kts 150°
2026-05-05 03:51 46.96450 -129.19583 40959 ft 474 kts 150°
2026-05-05 03:52 46.90609 -129.15098 40957 ft 474 kts 150°
2026-05-05 03:52 46.84769 -129.10613 40958 ft 474 kts 150°
2026-05-05 03:53 46.78928 -129.06121 40961 ft 475 kts 150°
2026-05-05 03:53 46.73124 -129.01664 40963 ft 475 kts 150°
2026-05-05 03:54 46.67273 -128.97181 40967 ft 475 kts 150°
2026-05-05 03:54 46.61423 -128.92712 40962 ft 475 kts 150°
2026-05-05 03:55 46.55568 -128.88250 40963 ft 475 kts 150°
2026-05-05 03:55 46.49749 -128.83826 40967 ft 475 kts 150°
2026-05-05 03:56 46.43890 -128.79383 40965 ft 475 kts 150°
2026-05-05 03:56 46.38035 -128.74953 40962 ft 475 kts 150°
2026-05-05 03:57 46.32174 -128.70530 40964 ft 474 kts 150°
2026-05-05 03:57 46.26365 -128.66156 40968 ft 474 kts 150°
2026-05-05 03:58 46.20520 -128.61779 40967 ft 474 kts 150°
2026-05-05 03:58 46.14666 -128.57424 40964 ft 473 kts 150°
2026-05-05 03:59 46.08820 -128.53066 40962 ft 473 kts 150°
2026-05-05 03:59 46.03031 -128.48752 40971 ft 472 kts 150°
2026-05-05 04:00 45.97210 -128.44420 40967 ft 471 kts 150°
2026-05-05 04:00 45.91395 -128.40104 40976 ft 471 kts 150°
2026-05-05 04:01 45.85580 -128.35800 40971 ft 470 kts 150°
2026-05-05 04:01 45.79797 -128.31528 40978 ft 470 kts 150°
2026-05-05 04:02 45.73980 -128.27242 40973 ft 470 kts 150°
2026-05-05 04:02 45.68168 -128.22970 40979 ft 470 kts 150°
2026-05-05 04:03 45.62349 -128.18703 40976 ft 470 kts 150°
2026-05-05 04:03 45.56534 -128.14448 40978 ft 469 kts 150°
2026-05-05 04:04 45.50762 -128.10234 40978 ft 469 kts 150°
2026-05-05 04:04 45.44944 -128.06018 40980 ft 469 kts 150°
2026-05-05 04:05 45.39134 -128.01823 40984 ft 468 kts 150°
2026-05-05 04:05 45.33332 -127.97625 40987 ft 468 kts 150°
2026-05-05 04:06 45.27571 -127.93459 40989 ft 468 kts 149°
2026-05-05 04:06 45.21772 -127.89274 41000 ft 468 kts 149°
2026-05-05 04:07 45.15969 -127.85096 40988 ft 468 kts 149°
2026-05-05 04:07 45.10161 -127.80925 40997 ft 468 kts 149°
2026-05-05 04:08 45.04345 -127.76757 40991 ft 469 kts 149°
2026-05-05 04:08 44.98570 -127.72629 40996 ft 469 kts 149°
2026-05-05 04:09 44.92748 -127.68477 41007 ft 469 kts 149°
2026-05-05 04:09 44.86922 -127.64331 40995 ft 469 kts 149°
2026-05-05 04:10 44.81099 -127.60197 40998 ft 468 kts 149°
2026-05-05 04:10 44.75320 -127.56103 40999 ft 468 kts 149°
2026-05-05 04:11 44.69485 -127.52004 41003 ft 469 kts 149°
2026-05-05 04:11 44.63650 -127.47910 41004 ft 469 kts 149°
2026-05-05 04:12 44.57821 -127.43814 41005 ft 469 kts 149°
2026-05-05 04:12 44.52025 -127.39744 41003 ft 469 kts 149°
2026-05-05 04:13 44.46198 -127.35662 41005 ft 469 kts 149°
2026-05-05 04:13 44.40361 -127.31583 41005 ft 469 kts 149°
2026-05-05 04:14 44.34526 -127.27515 41010 ft 469 kts 149°
2026-05-05 04:14 44.28731 -127.23484 41006 ft 469 kts 149°
2026-05-05 04:15 44.22895 -127.19432 41009 ft 468 kts 149°
2026-05-05 04:15 44.17063 -127.15393 41021 ft 468 kts 149°
2026-05-05 04:16 44.11223 -127.11357 41015 ft 469 kts 149°
2026-05-05 04:16 44.05417 -127.07353 41015 ft 469 kts 149°
2026-05-05 04:17 43.99607 -127.03358 41035 ft 469 kts 149°
2026-05-05 04:17 43.93787 -126.99389 41018 ft 469 kts 149°
2026-05-05 04:18 43.87925 -126.95390 41018 ft 470 kts 149°
2026-05-05 04:18 43.82066 -126.91389 41021 ft 470 kts 149°
2026-05-05 04:19 43.76244 -126.87418 41018 ft 470 kts 149°
2026-05-05 04:19 43.70381 -126.83428 41022 ft 469 kts 149°
2026-05-05 04:20 43.64522 -126.79450 41022 ft 469 kts 149°
2026-05-05 04:20 43.58661 -126.75479 41026 ft 470 kts 148°
2026-05-05 04:21 43.52834 -126.71540 41027 ft 470 kts 149°
2026-05-05 04:21 43.46965 -126.67581 41032 ft 470 kts 149°
2026-05-05 04:22 43.41083 -126.63640 41032 ft 471 kts 149°
2026-05-05 04:22 43.35186 -126.59709 41032 ft 471 kts 149°
2026-05-05 04:23 43.29331 -126.55805 41034 ft 471 kts 149°
2026-05-05 04:23 43.23437 -126.51878 41043 ft 472 kts 148°
2026-05-05 04:24 43.17534 -126.47952 41034 ft 471 kts 148°
2026-05-05 04:25 43.08681 -126.42081 41055 ft 471 kts 148°
2026-05-05 04:25 43.02777 -126.38175 41040 ft 472 kts 148°
2026-05-05 04:26 42.96901 -126.34298 41040 ft 472 kts 148°
2026-05-05 04:26 42.90988 -126.30404 41067 ft 472 kts 148°
2026-05-05 04:27 42.85068 -126.26513 41038 ft 473 kts 148°
2026-05-05 04:27 42.79142 -126.22628 41040 ft 473 kts 148°
2026-05-05 04:28 42.73256 -126.18776 41036 ft 473 kts 148°
2026-05-05 04:28 42.67444 -126.14694 41045 ft 466 kts 141°
2026-05-05 04:29 42.62333 -126.09442 41047 ft 460 kts 134°
2026-05-05 04:29 42.57437 -126.03862 41063 ft 459 kts 134°
2026-05-05 04:30 42.52509 -125.98335 41049 ft 460 kts 134°
2026-05-05 04:30 42.47578 -125.92910 41045 ft 460 kts 135°
2026-05-05 04:31 42.42596 -125.87470 41047 ft 460 kts 135°
2026-05-05 04:31 42.37615 -125.82043 41043 ft 460 kts 135°
2026-05-05 04:32 42.32629 -125.76620 41047 ft 460 kts 135°
2026-05-05 04:32 42.27675 -125.71242 41043 ft 460 kts 135°
2026-05-05 04:33 42.22687 -125.65839 41048 ft 459 kts 135°
2026-05-05 04:33 42.17707 -125.60455 41048 ft 459 kts 135°
2026-05-05 04:34 42.12725 -125.55080 41050 ft 459 kts 135°
2026-05-05 04:34 42.07779 -125.49754 41054 ft 458 kts 135°
2026-05-05 04:35 42.02797 -125.44407 41050 ft 458 kts 135°
2026-05-05 04:35 41.97802 -125.39090 41050 ft 458 kts 135°
2026-05-05 04:36 41.92813 -125.33773 41056 ft 457 kts 135°
2026-05-05 04:36 41.87839 -125.28467 41052 ft 457 kts 135°
2026-05-05 04:37 41.82898 -125.23201 41055 ft 457 kts 135°
2026-05-05 04:37 41.77928 -125.17914 41057 ft 457 kts 135°
2026-05-05 04:38 41.72950 -125.12632 41057 ft 457 kts 135°
2026-05-05 04:38 41.67973 -125.07361 41055 ft 456 kts 135°
2026-05-05 04:39 41.63043 -125.02149 41059 ft 457 kts 135°
2026-05-05 04:39 41.58054 -124.96887 41056 ft 457 kts 135°
2026-05-05 04:40 41.53067 -124.91638 41053 ft 457 kts 135°
2026-05-05 04:40 41.48068 -124.86386 41057 ft 457 kts 135°
2026-05-05 04:41 41.43066 -124.81142 41051 ft 457 kts 135°
2026-05-05 04:41 41.38100 -124.75949 41048 ft 457 kts 136°
2026-05-05 04:42 41.33078 -124.70741 41048 ft 457 kts 136°
2026-05-05 04:42 41.28062 -124.65536 41050 ft 457 kts 136°
2026-05-05 04:43 41.23055 -124.60335 41050 ft 457 kts 136°
2026-05-05 04:43 41.18080 -124.55171 41051 ft 457 kts 136°
2026-05-05 04:44 41.13067 -124.49977 41054 ft 457 kts 136°
2026-05-05 04:44 41.08053 -124.44794 41056 ft 457 kts 136°
2026-05-05 04:45 41.03029 -124.39610 41061 ft 458 kts 136°
2026-05-05 04:45 40.98029 -124.34460 41064 ft 459 kts 136°
2026-05-05 04:46 40.92992 -124.29285 41061 ft 459 kts 136°
2026-05-05 04:46 40.87941 -124.24104 41060 ft 460 kts 136°
2026-05-05 04:47 40.82878 -124.18922 41062 ft 461 kts 136°
2026-05-05 04:47 40.77813 -124.13749 41059 ft 461 kts 136°
2026-05-05 04:48 40.72771 -124.08609 41065 ft 461 kts 136°
2026-05-05 04:48 40.67676 -124.03458 41071 ft 462 kts 136°
2026-05-05 04:49 40.62579 -123.98306 41068 ft 462 kts 136°
2026-05-05 04:49 40.57515 -123.93176 41068 ft 463 kts 136°
2026-05-05 04:50 40.52414 -123.88018 41060 ft 463 kts 136°
2026-05-05 04:50 40.47308 -123.82864 41071 ft 463 kts 137°
2026-05-05 04:51 40.42193 -123.77711 41057 ft 464 kts 137°
2026-05-05 04:51 40.37067 -123.72557 41053 ft 464 kts 137°
2026-05-05 04:52 40.31982 -123.67455 41064 ft 464 kts 137°
2026-05-05 04:52 40.26842 -123.62306 41050 ft 465 kts 137°
2026-05-05 04:53 40.21700 -123.57168 41045 ft 465 kts 137°
2026-05-05 04:53 40.16554 -123.52034 41051 ft 465 kts 137°
2026-05-05 04:54 40.11404 -123.46907 41041 ft 466 kts 137°
2026-05-05 04:54 40.06284 -123.41820 41035 ft 466 kts 138°
2026-05-05 04:55 40.01117 -123.36727 41028 ft 466 kts 138°
2026-05-05 04:55 39.98524 -123.34173 40801 ft 466 kts 138°
2026-05-05 04:55 39.95939 -123.31625 40551 ft 466 kts 137°
2026-05-05 04:55 39.93350 -123.29071 40138 ft 465 kts 137°
2026-05-05 04:56 39.90768 -123.26524 39610 ft 465 kts 137°
2026-05-05 04:56 39.88229 -123.24021 39115 ft 464 kts 137°
2026-05-05 04:56 39.85653 -123.21482 38576 ft 466 kts 136°
2026-05-05 04:56 39.83068 -123.18935 37962 ft 466 kts 136°
2026-05-05 04:57 39.80484 -123.16394 37415 ft 466 kts 136°
2026-05-05 04:57 39.77899 -123.13853 36879 ft 466 kts 136°
2026-05-05 04:57 39.75317 -123.11319 36351 ft 465 kts 136°
2026-05-05 04:57 39.72736 -123.08789 35844 ft 465 kts 136°
2026-05-05 04:58 39.70150 -123.06257 35284 ft 465 kts 135°
2026-05-05 04:58 39.67582 -123.03745 34726 ft 465 kts 135°
2026-05-05 04:58 39.65002 -123.01221 34175 ft 465 kts 135°
2026-05-05 04:58 39.62458 -122.98737 33567 ft 464 kts 135°
2026-05-05 04:59 39.59879 -122.96218 32988 ft 465 kts 135°
2026-05-05 04:59 39.57280 -122.93680 32394 ft 469 kts 136°
2026-05-05 04:59 39.54671 -122.91135 31823 ft 471 kts 136°
2026-05-05 04:59 39.52050 -122.88585 31259 ft 472 kts 136°
2026-05-05 05:00 39.49426 -122.86035 30637 ft 473 kts 136°
2026-05-05 05:00 39.46786 -122.83472 30028 ft 473 kts 137°
2026-05-05 05:00 39.44166 -122.80934 29306 ft 469 kts 137°
2026-05-05 05:00 39.41650 -122.78500 28690 ft 465 kts 137°
2026-05-05 05:01 39.39069 -122.76009 28072 ft 461 kts 138°
2026-05-05 05:01 39.36958 -122.73982 27582 ft 458 kts 138°
2026-05-05 05:01 39.35090 -122.72189 27124 ft 456 kts 138°
2026-05-05 05:01 39.33162 -122.70336 26725 ft 453 kts 138°
2026-05-05 05:02 39.30848 -122.68110 26381 ft 450 kts 138°
2026-05-05 05:02 39.29309 -122.66628 26261 ft 449 kts 138°
2026-05-05 05:02 39.27606 -122.64990 26184 ft 435 kts 138°
2026-05-05 05:02 39.25590 -122.63061 26088 ft 411 kts 138°
2026-05-05 05:03 39.23306 -122.60926 25976 ft 412 kts 141°
2026-05-05 05:03 39.20753 -122.59243 25815 ft 419 kts 155°
2026-05-05 05:03 39.17914 -122.58328 25216 ft 421 kts 166°
2026-05-05 05:03 39.15001 -122.57891 24656 ft 421 kts 170°
2026-05-05 05:04 39.12089 -122.57605 24089 ft 418 kts 171°
2026-05-05 05:04 39.09198 -122.57329 23542 ft 414 kts 171°
2026-05-05 05:04 39.06339 -122.57018 23112 ft 410 kts 170°
2026-05-05 05:04 39.03518 -122.56616 22944 ft 406 kts 167°
2026-05-05 05:05 39.00772 -122.56040 22902 ft 405 kts 165°
2026-05-05 05:05 38.98009 -122.55366 22841 ft 404 kts 164°
2026-05-05 05:05 38.95254 -122.54659 22788 ft 404 kts 163°
2026-05-05 05:05 38.92499 -122.53945 22720 ft 404 kts 163°
2026-05-05 05:06 38.89745 -122.53234 22653 ft 404 kts 163°
2026-05-05 05:06 38.86989 -122.52530 22586 ft 403 kts 163°
2026-05-05 05:06 38.84236 -122.51831 22519 ft 403 kts 163°
2026-05-05 05:06 38.81490 -122.51137 22473 ft 403 kts 163°
2026-05-05 05:07 38.78741 -122.50444 22408 ft 402 kts 164°
2026-05-05 05:07 38.75987 -122.49750 22343 ft 404 kts 164°
2026-05-05 05:07 38.73218 -122.49053 21979 ft 404 kts 164°
2026-05-05 05:07 38.70505 -122.48375 21457 ft 402 kts 164°
2026-05-05 05:08 38.67754 -122.47789 20862 ft 400 kts 167°
2026-05-05 05:08 38.65007 -122.47324 20239 ft 396 kts 168°
2026-05-05 05:08 38.62280 -122.46910 19620 ft 393 kts 168°
2026-05-05 05:08 38.59576 -122.46512 18936 ft 389 kts 168°
2026-05-05 05:09 38.56893 -122.46115 18265 ft 386 kts 168°
2026-05-05 05:09 38.54239 -122.45718 17562 ft 383 kts 168°
2026-05-05 05:09 38.51628 -122.45324 16905 ft 380 kts 168°
2026-05-05 05:09 38.49006 -122.44926 16286 ft 377 kts 168°
2026-05-05 05:10 38.46446 -122.44536 15694 ft 375 kts 168°
2026-05-05 05:10 38.43865 -122.44142 15111 ft 373 kts 168°
2026-05-05 05:10 38.41300 -122.43749 14531 ft 370 kts 169°
2026-05-05 05:10 38.38743 -122.43357 13958 ft 369 kts 170°
2026-05-05 05:11 38.36201 -122.42969 13325 ft 366 kts 170°
2026-05-05 05:11 38.33686 -122.42586 12721 ft 361 kts 171°
2026-05-05 05:11 38.31212 -122.42209 12144 ft 356 kts 171°
2026-05-05 05:11 38.28761 -122.41837 11583 ft 351 kts 172°
2026-05-05 05:12 38.26358 -122.41472 11102 ft 346 kts 172°
2026-05-05 05:12 38.24018 -122.41115 10838 ft 341 kts 172°
2026-05-05 05:12 38.21725 -122.40764 10737 ft 323 kts 172°
2026-05-05 05:12 38.19556 -122.40432 10595 ft 307 kts 172°
2026-05-05 05:13 38.17460 -122.40109 10243 ft 301 kts 172°
2026-05-05 05:13 38.15394 -122.39790 9695 ft 301 kts 172°
2026-05-05 05:13 38.13318 -122.39470 9152 ft 300 kts 172°
2026-05-05 05:13 38.11304 -122.39158 8629 ft 288 kts 172°
2026-05-05 05:14 38.09336 -122.38854 8198 ft 282 kts 173°
2026-05-05 05:14 38.07405 -122.38557 7826 ft 279 kts 173°
2026-05-05 05:14 38.05487 -122.38262 7448 ft 277 kts 173°
2026-05-05 05:14 38.03607 -122.37972 7092 ft 274 kts 173°
2026-05-05 05:15 38.01785 -122.37335 6967 ft 272 kts 153°
2026-05-05 05:15 38.00172 -122.36061 6918 ft 273 kts 145°
2026-05-05 05:15 37.98660 -122.34646 6837 ft 273 kts 143°
2026-05-05 05:15 37.97135 -122.33169 6797 ft 274 kts 143°
2026-05-05 05:16 37.95623 -122.31701 6748 ft 274 kts 143°
2026-05-05 05:16 37.94130 -122.30254 6698 ft 273 kts 143°
2026-05-05 05:16 37.92617 -122.28791 6638 ft 273 kts 143°
2026-05-05 05:16 37.91115 -122.27343 6582 ft 272 kts 143°
2026-05-05 05:17 37.89627 -122.25908 6523 ft 272 kts 143°
2026-05-05 05:17 37.88118 -122.24456 6474 ft 272 kts 144°
2026-05-05 05:17 37.86653 -122.23047 6335 ft 269 kts 144°
2026-05-05 05:17 37.85155 -122.21609 6126 ft 267 kts 144°
2026-05-05 05:18 37.83684 -122.20197 5986 ft 266 kts 144°
2026-05-05 05:18 37.82210 -122.18784 5776 ft 265 kts 144°
2026-05-05 05:18 37.80748 -122.17383 5498 ft 263 kts 144°
2026-05-05 05:18 37.79299 -122.15993 5218 ft 260 kts 144°
2026-05-05 05:19 37.78008 -122.14424 4947 ft 261 kts 133°
2026-05-05 05:19 37.76881 -122.12697 4657 ft 245 kts 130°
2026-05-05 05:19 37.75880 -122.11078 4421 ft 219 kts 130°
2026-05-05 05:19 37.74997 -122.09637 4232 ft 199 kts 130°
2026-05-05 05:20 37.74177 -122.08299 3997 ft 190 kts 130°
2026-05-05 05:20 37.73384 -122.07010 3703 ft 181 kts 131°
2026-05-05 05:20 37.72582 -122.05858 3281 ft 171 kts 148°
2026-05-05 05:20 37.71494 -122.05489 2848 ft 158 kts 191°
2026-05-05 05:21 37.70461 -122.05756 2619 ft 147 kts 195°
2026-05-05 05:21 37.69465 -122.06000 2585 ft 145 kts 195°
2026-05-05 05:21 37.68476 -122.06238 2561 ft 145 kts 195°
2026-05-05 05:21 37.67502 -122.06473 2479 ft 144 kts 195°
2026-05-05 05:22 37.66521 -122.06709 2344 ft 143 kts 195°
2026-05-05 05:22 37.65573 -122.07050 2194 ft 141 kts 217°
2026-05-05 05:22 37.64925 -122.07911 2107 ft 138 kts 233°
2026-05-05 05:22 37.64295 -122.08832 2133 ft 140 kts 232°
2026-05-05 05:23 37.63656 -122.09761 2109 ft 140 kts 232°
2026-05-05 05:23 37.63043 -122.10709 2064 ft 139 kts 243°
2026-05-05 05:23 37.63001 -122.11849 1891 ft 133 kts 300°
2026-05-05 05:23 37.63680 -122.12609 2045 ft 137 kts 320°
2026-05-05 05:24 37.64416 -122.13394 1895 ft 139 kts 317°
2026-05-05 05:24 37.65128 -122.14193 1613 ft 136 kts 315°
2026-05-05 05:24 37.65821 -122.15031 1411 ft 140 kts 313°
2026-05-05 05:24 37.66492 -122.15933 1227 ft 141 kts 310°
2026-05-05 05:25 37.67135 -122.16865 995 ft 143 kts 308°
2026-05-05 05:25 37.67773 -122.17852 820 ft 147 kts 308°
2026-05-05 05:25 37.68395 -122.18828 598 ft 141 kts 308°
2026-05-05 05:25 37.69020 -122.19771 383 ft 142 kts 311°
2026-05-05 05:26 37.69660 -122.20705 218 ft 140 kts 310°
2026-05-05 05:26 37.70286 -122.21635 34 ft 136 kts 311°
2026-05-05 05:26 37.70824 -122.22439 10 ft 103 kts 309°
2026-05-05 05:26 37.71173 -122.22963 14 ft 43 kts 313°
2026-05-05 05:27 37.71357 -122.23119 13 ft 26 kts 340°
2026-05-05 05:27 37.71450 -122.23143 12 ft 8 kts 358°
2026-05-05 05:27 37.71495 -122.23094 15 ft 7 kts 93°
2026-05-05 05:28 37.71481 -122.23046 18 ft 8 kts 121°
2026-05-05 05:28 37.71445 -122.22990 18 ft 5 kts 131°
2026-05-05 05:28 37.71427 -122.22964 18 ft 3 kts 131°
2026-05-05 05:28 37.71400 -122.22924 20 ft 11 kts 130°
2026-05-05 05:29 37.71348 -122.22847 18 ft 12 kts 130°
2026-05-05 05:29 37.71292 -122.22766 18 ft 12 kts 131°
2026-05-05 05:29 37.71257 -122.22714 19 ft 12 kts 130°
2026-05-05 05:29 37.71202 -122.22629 19 ft 13 kts 129°
2026-05-05 05:30 37.71139 -122.22532 16 ft 15 kts 130°
2026-05-05 05:30 37.71110 -122.22461 17 ft 7 kts 85°
2026-05-05 05:30 37.71135 -122.22408 17 ft 12 kts 45°
2026-05-05 05:30 37.71221 -122.22317 18 ft 12 kts 40°
2026-05-05 05:31 37.71261 -122.22274 18 ft 11 kts 40°
2026-05-05 05:31 37.71315 -122.22213 21 ft 10 kts 44°
2026-05-05 05:31 37.71364 -122.22147 21 ft 10 kts 48°
2026-05-05 05:31 37.71410 -122.22082 20 ft 9 kts 48°
2026-05-05 05:32 37.71449 -122.22025 22 ft 8 kts 49°
2026-05-05 05:32 37.71497 -122.21985 21 ft 10 kts 11°
2026-05-05 05:32 37.71555 -122.22025 21 ft 9 kts 321°
2026-05-05 05:32 37.71636 -122.22024 23 ft 8 kts 40°
2026-05-05 05:33 37.71662 -122.21994 25 ft 7 kts 44°
2026-05-05 05:33 37.71689 -122.21960 25 ft 4 kts 44°
2026-05-05 05:33 37.71707 -122.21946 26 ft 2 kts 21°
2026-05-05 05:33 37.71717 -122.21948 27 ft 4 kts 356°
2026-05-05 05:34 37.71726 -122.21955 26 ft 2 kts 324°
2026-05-05 05:34 37.71736 -122.21965 27 ft 0 kts 317°